| time (UTC) | temp F | wind direction | speed MPH | gust MPH | rain 1hr in | rain 24hr in | rain mn in | humidity % | barometer mb |
| 20260831183038 | 77 | 207 | 0.0 | 1.0 | 0.00 | 0.00 | 0.00 | 68 | 1017.5 |
| 20260831182040 | 77 | 207 | 0.0 | 3.0 | 0.00 | 0.00 | 0.00 | 69 | 1017.6 |
| 20260831181511 | 77 | 46 | 0.0 | 3.0 | 0.00 | 0.00 | 0.00 | 64 | 1017.7 |
| 20260831180042 | 77 | 58 | 0.0 | 1.0 | 0.00 | 0.00 | 0.00 | 66 | 1017.8 |
| 20260831175040 | 77 | 58 | 0.0 | 2.0 | 0.00 | 0.00 | 0.00 | 64 | 1018.1 |
| 20260831174039 | 77 | 58 | 0.0 | 3.0 | 0.00 | 0.00 | 0.00 | 66 | 1018.2 |
| 20260831173034 | 77 | 72 | 1.0 | 4.0 | 0.00 | 0.00 | 0.00 | 68 | 1018.1 |
| 20260831172034 | 76 | 43 | 0.0 | 1.0 | 0.00 | 0.00 | 0.00 | 67 | 1018.2 |
| 20260831171034 | 76 | 42 | 1.0 | 3.0 | 0.00 | 0.00 | 0.00 | 68 | 1018.3 |
| 20260831170035 | 76 | 45 | 1.0 | 3.0 | 0.00 | 0.00 | 0.00 | 66 | 1018.2 |
| 20260831165033 | 75 | 44 | 1.0 | 3.0 | 0.00 | 0.00 | 0.00 | 67 | 1018.4 |
| 20260831164034 | 75 | 171 | 0.0 | 3.0 | 0.00 | 0.00 | 0.00 | 70 | 1018.7 |
| 20260831163032 | 74 | 171 | 1.0 | 4.0 | 0.00 | 0.00 | 0.00 | 70 | 1018.7 |
| 20260831162034 | 74 | 171 | 1.0 | 4.0 | 0.00 | 0.00 | 0.00 | 73 | 1018.8 |
| 20260831161035 | 74 | 55 | 1.0 | 3.0 | 0.00 | 0.00 | 0.00 | 72 | 1018.8 |
| 20260831160028 | 74 | 166 | 0.0 | 1.0 | 0.00 | 0.00 | 0.00 | 75 | 1019.0 |
| 20260831155026 | 73 | 166 | 1.0 | 5.0 | 0.00 | 0.00 | 0.00 | 75 | 1018.9 |
| 20260831154506 | 73 | 166 | 1.0 | 5.0 | 0.00 | 0.00 | 0.00 | 74 | 1019.0 |
| 20260831153506 | 73 | 71 | 1.0 | 5.0 | 0.00 | 0.00 | 0.00 | 73 | 1019.1 |
| 20260831152027 | 72 | 50 | 0.0 | 3.0 | 0.00 | 0.00 | 0.00 | 74 | 1018.9 |
| 20260831151026 | 72 | 303 | 0.0 | 2.0 | 0.00 | 0.00 | 0.00 | 75 | 1019.1 |
| 20260831150515 | 72 | 61 | 0.0 | 3.0 | 0.00 | 0.00 | 0.00 | 78 | 1019.0 |
| 20260831145026 | 71 | 67 | 0.0 | 2.0 | 0.00 | 0.00 | 0.00 | 78 | 1019.1 |
| 20260831144026 | 71 | 59 | 0.0 | 3.0 | 0.00 | 0.00 | 0.00 | 82 | 1019.1 |
| 20260831143022 | 71 | 60 | 0.0 | 2.0 | 0.00 | 0.00 | 0.00 | 82 | 1019.1 |
| 20260831142023 | 71 | 59 | 1.0 | 3.0 | 0.00 | 0.00 | 0.00 | 81 | 1019.0 |
| 20260831141020 | 70 | 60 | 1.0 | 4.0 | 0.00 | 0.00 | 0.00 | 81 | 1019.0 |
| 20260831140021 | 70 | 28 | 1.0 | 4.0 | 0.00 | 0.00 | 0.00 | 84 | 1018.9 |
| 20260831135021 | 70 | 34 | 1.0 | 4.0 | 0.00 | 0.00 | 0.00 | 85 | 1018.9 |
| 20260831134503 | 69 | 71 | 2.0 | 4.0 | 0.00 | 0.00 | 0.00 | 86 | 1018.8 |
| 20260831133502 | 69 | 40 | 2.0 | 5.0 | 0.00 | 0.00 | 0.00 | 86 | 1018.8 |
| 20260831132020 | 69 | 37 | 2.0 | 4.0 | 0.00 | 0.00 | 0.00 | 87 | 1018.9 |
| 20260831131021 | 68 | 65 | 1.0 | 4.0 | 0.00 | 0.00 | 0.00 | 88 | 1019.1 |
| 20260831130016 | 68 | 80 | 1.0 | 3.0 | 0.00 | 0.00 | 0.00 | 90 | 1018.9 |
| 20260831125014 | 68 | 81 | 0.0 | 3.0 | 0.00 | 0.00 | 0.00 | 90 | 1018.9 |
| 20260831124014 | 67 | 81 | 0.0 | 3.0 | 0.00 | 0.00 | 0.00 | 90 | 1019.0 |
| 20260831123014 | 67 | 49 | 1.0 | 3.0 | 0.00 | 0.00 | 0.00 | 92 | 1018.8 |
| 20260831122452 | 66 | 49 | 0.0 | 2.0 | 0.00 | 0.00 | 0.00 | 93 | 1018.7 |
| 20260831121424 | 65 | 49 | 0.0 | 2.0 | 0.00 | 0.00 | 0.00 | 94 | 1018.7 |
| 20260831121055 | 66 | 49 | 0.0 | 3.0 | 0.00 | 0.00 | 0.00 | 94 | 1018.7 |
| 20260831115014 | 65 | 44 | 1.0 | 3.0 | 0.00 | 0.00 | 0.00 | 94 | 1018.5 |
| 20260831114017 | 64 | 43 | 0.0 | 3.0 | 0.00 | 0.00 | 0.00 | 95 | 1018.4 |
| 20260831113008 | 64 | 51 | 0.0 | 1.0 | 0.00 | 0.00 | 0.00 | 95 | 1018.6 |
| 20260831112914 | 63 | 51 | 0.0 | 1.0 | 0.00 | 0.00 | 0.00 | 94 | 1018.4 |
| 20260831111450 | 63 | 52 | 0.0 | 0.0 | 0.00 | 0.00 | 0.00 | 94 | 1018.3 |
| 20260831110008 | 63 | 51 | 0.0 | 0.0 | 0.00 | 0.00 | 0.00 | 94 | 1018.2 |
| 20260831105008 | 63 | 52 | 0.0 | 0.0 | 0.00 | 0.00 | 0.00 | 94 | 1017.9 |
| 20260831104447 | 63 | 52 | 0.0 | 0.0 | 0.00 | 0.00 | 0.00 | 94 | 1017.9 |
| 20260831103917 | 63 | 52 | 0.0 | 0.0 | 0.00 | 0.00 | 0.00 | 94 | 1017.8 |
| 20260831102007 | 63 | 52 | 0.0 | 0.0 | 0.00 | 0.00 | 0.00 | 94 | 1017.7 |
| 20260831101008 | 63 | 51 | 0.0 | 0.0 | 0.00 | 0.00 | 0.00 | 94 | 1017.7 |
| 20260831100009 | 63 | 51 | 0.0 | 0.0 | 0.00 | 0.00 | 0.00 | 94 | 1017.7 |
| 20260831095445 | 64 | 52 | 0.0 | 1.0 | 0.00 | 0.00 | 0.00 | 94 | 1017.7 |
| 20260831094009 | 64 | 52 | 0.0 | 0.0 | 0.00 | 0.00 | 0.00 | 94 | 1017.5 |
| 20260831093009 | 64 | 51 | 0.0 | 1.0 | 0.00 | 0.00 | 0.00 | 94 | 1017.6 |
| 20260831092441 | 64 | 51 | 0.0 | 1.0 | 0.00 | 0.00 | 0.00 | 93 | 1017.6 |
| 20260831091002 | 64 | 51 | 0.0 | 0.0 | 0.00 | 0.00 | 0.00 | 93 | 1017.5 |
| 20260831090002 | 64 | 51 | 0.0 | 0.0 | 0.00 | 0.00 | 0.00 | 93 | 1017.5 |
| 20260831085003 | 64 | 51 | 0.0 | 0.0 | 0.00 | 0.00 | 0.00 | 93 | 1017.5 |
| 20260831084002 | 64 | 52 | 0.0 | 0.0 | 0.00 | 0.00 | 0.00 | 93 | 1017.5 |
| 20260831083438 | 64 | 51 | 0.0 | 0.0 | 0.00 | 0.00 | 0.00 | 92 | 1017.4 |
| 20260831082003 | 64 | 51 | 0.0 | 0.0 | 0.00 | 0.00 | 0.00 | 93 | 1017.3 |
| 20260831081003 | 65 | 51 | 0.0 | 0.0 | 0.00 | 0.00 | 0.00 | 92 | 1017.4 |
| 20260831080001 | 65 | 52 | 0.0 | 0.0 | 0.00 | 0.00 | 0.00 | 92 | 1017.4 |
| 20260831075002 | 65 | 51 | 0.0 | 1.0 | 0.00 | 0.00 | 0.00 | 92 | 1017.4 |
| 20260831074002 | 65 | 51 | 0.0 | 1.0 | 0.00 | 0.00 | 0.00 | 91 | 1017.3 |
| 20260831073440 | 65 | 51 | 0.0 | 1.0 | 0.00 | 0.00 | 0.00 | 91 | 1017.3 |
| 20260831071957 | 66 | 51 | 0.0 | 2.0 | 0.00 | 0.00 | 0.00 | 91 | 1017.3 |
| 20260831070954 | 66 | 51 | 0.0 | 1.0 | 0.00 | 0.00 | 0.00 | 91 | 1017.3 |
| 20260831070435 | 66 | 52 | 0.0 | 2.0 | 0.00 | 0.00 | 0.00 | 91 | 1017.0 |
| 20260831064953 | 66 | 52 | 0.0 | 2.0 | 0.00 | 0.00 | 0.00 | 91 | 1017.1 |
| 20260831063953 | 66 | 53 | 0.0 | 4.0 | 0.00 | 0.00 | 0.00 | 91 | 1017.0 |
| 20260831062953 | 67 | 57 | 0.0 | 3.0 | 0.00 | 0.00 | 0.00 | 90 | 1017.0 |
| 20260831061954 | 67 | 56 | 1.0 | 3.0 | 0.00 | 0.00 | 0.00 | 90 | 1016.8 |
| 20260831061438 | 67 | 51 | 1.0 | 4.0 | 0.00 | 0.00 | 0.00 | 90 | 1016.8 |
| 20260831060433 | 67 | 83 | 2.0 | 5.0 | 0.00 | 0.00 | 0.00 | 90 | 1016.8 |
| 20260831055431 | 67 | 54 | 1.0 | 4.0 | 0.00 | 0.00 | 0.00 | 90 | 1016.7 |
| 20260831053948 | 67 | 69 | 1.0 | 3.0 | 0.00 | 0.00 | 0.00 | 90 | 1016.4 |
| 20260831052949 | 67 | 59 | 1.0 | 5.0 | 0.00 | 0.00 | 0.00 | 90 | 1016.5 |
| 20260831051948 | 67 | 71 | 1.0 | 4.0 | 0.00 | 0.00 | 0.00 | 90 | 1016.5 |
| 20260831050948 | 67 | 188 | 0.0 | 3.0 | 0.00 | 0.00 | 0.00 | 90 | 1016.2 |
| 20260831045947 | 68 | 188 | 0.0 | 1.0 | 0.00 | 0.00 | 0.00 | 90 | 1016.6 |
| 20260831045425 | 68 | 188 | 0.0 | 0.0 | 0.00 | 0.00 | 0.00 | 89 | 1016.9 |
| 20260831044423 | 68 | 188 | 0.0 | 0.0 | 0.00 | 0.00 | 0.00 | 89 | 1017.0 |
| 20260831042943 | 69 | 188 | 0.0 | 3.0 | 0.00 | 0.00 | 0.00 | 88 | 1017.0 |
| 20260831041941 | 69 | 188 | 0.0 | 3.0 | 0.00 | 0.00 | 0.00 | 88 | 1017.0 |
| 20260831040942 | 69 | 62 | 0.0 | 1.0 | 0.00 | 0.00 | 0.00 | 88 | 1016.9 |
| 20260831035942 | 69 | 56 | 0.0 | 2.0 | 0.00 | 0.00 | 0.00 | 89 | 1016.8 |
| 20260831034939 | 69 | 49 | 0.0 | 7.0 | 0.00 | 0.00 | 0.00 | 89 | 1016.6 |
| 20260831033938 | 69 | 192 | 0.0 | 1.0 | 0.00 | 0.00 | 0.00 | 90 | 1016.7 |
| 20260831032937 | 69 | 192 | 0.0 | 1.0 | 0.00 | 0.00 | 0.00 | 90 | 1016.7 |
| 20260831031938 | 69 | 218 | 0.0 | 4.0 | 0.00 | 0.00 | 0.00 | 90 | 1016.5 |
| 20260831030938 | 69 | 227 | 0.0 | 2.0 | 0.00 | 0.00 | 0.00 | 91 | 1016.7 |
| 20260831025939 | 69 | 226 | 0.0 | 1.0 | 0.00 | 0.00 | 0.00 | 91 | 1016.7 |
| 20260831024939 | 70 | 30 | 0.0 | 0.0 | 0.00 | 0.00 | 0.00 | 92 | 1016.9 |
| 20260831023939 | 70 | 30 | 0.0 | 0.0 | 0.00 | 0.00 | 0.00 | 92 | 1016.9 |
| 20260831022938 | 70 | 30 | 0.0 | 0.0 | 0.00 | 0.00 | 0.00 | 92 | 1016.9 |
| 20260831022415 | 70 | 30 | 0.0 | 0.0 | 0.00 | 0.00 | 0.00 | 92 | 1016.7 |
| 20260831020936 | 70 | 28 | 0.0 | 0.0 | 0.00 | 0.00 | 0.00 | 93 | 1016.7 |
| 20260831020901 | 71 | 28 | 0.0 | 4.0 | 0.00 | 0.00 | 0.00 | 94 | 1016.5 |
| 20260831014930 | 71 | 194 | 0.0 | 0.0 | 0.00 | 0.00 | 0.00 | 94 | 1016.4 |
| 20260831013929 | 71 | 194 | 0.0 | 0.0 | 0.00 | 0.00 | 0.00 | 94 | 1016.0 |
| 20260831012929 | 71 | 194 | 0.0 | 0.0 | 0.00 | 0.00 | 0.00 | 94 | 1015.7 |
| 20260831012316 | 71 | 194 | 0.0 | 0.0 | 0.00 | 0.00 | 0.00 | 93 | 1015.5 |
| 20260831011955 | 71 | 194 | 0.0 | 0.0 | 0.00 | 0.00 | 0.00 | 93 | 1015.7 |
| 20260831005930 | 71 | 194 | 0.0 | 0.0 | 0.00 | 0.00 | 0.00 | 93 | 1015.5 |
| 20260831004930 | 71 | 194 | 0.0 | 0.0 | 0.00 | 0.00 | 0.00 | 93 | 1015.6 |
| 20260831003930 | 71 | 194 | 0.0 | 0.0 | 0.00 | 0.00 | 0.00 | 92 | 1015.7 |
| 20260831002924 | 71 | 194 | 0.0 | 0.0 | 0.00 | 0.00 | 0.00 | 92 | 1015.7 |
| 20260831001923 | 72 | 194 | 0.0 | 0.0 | 0.00 | 0.00 | 0.00 | 92 | 1015.5 |
| 20260831000925 | 72 | 194 | 0.0 | 0.0 | 0.00 | 0.00 | 0.00 | 91 | 1015.5 |
| 20260830235923 | 72 | 194 | 0.0 | 0.0 | 0.00 | 0.00 | 0.00 | 91 | 1015.5 |
| 20260830234924 | 73 | 194 | 0.0 | 0.0 | 0.00 | 0.00 | 0.00 | 90 | 1015.4 |
| 20260830233925 | 73 | 194 | 0.0 | 1.0 | 0.00 | 0.00 | 0.00 | 90 | 1015.4 |
| 20260830233406 | 73 | 194 | 0.0 | 1.0 | 0.00 | 0.00 | 0.00 | 89 | 1015.5 |
| 20260830231923 | 73 | 194 | 0.0 | 1.0 | 0.00 | 0.00 | 0.00 | 88 | 1015.5 |
| 20260830230923 | 74 | 194 | 0.0 | 1.0 | 0.00 | 0.00 | 0.00 | 87 | 1015.5 |
| 20260830225919 | 74 | 194 | 0.0 | 4.0 | 0.00 | 0.00 | 0.00 | 86 | 1015.5 |
| 20260830224919 | 74 | 194 | 0.0 | 0.0 | 0.00 | 0.00 | 0.00 | 84 | 1015.6 |
| 20260830223917 | 75 | 194 | 0.0 | 5.0 | 0.00 | 0.00 | 0.00 | 84 | 1015.6 |
| 20260830222920 | 75 | 193 | 0.0 | 4.0 | 0.00 | 0.00 | 0.00 | 83 | 1015.5 |
| 20260830221919 | 75 | 194 | 1.0 | 3.0 | 0.00 | 0.00 | 0.00 | 82 | 1015.6 |
| 20260830220917 | 75 | 194 | 1.0 | 3.0 | 0.00 | 0.00 | 0.00 | 82 | 1015.4 |
| 20260830215918 | 75 | 229 | 1.0 | 6.0 | 0.00 | 0.00 | 0.00 | 82 | 1015.5 |
| 20260830214918 | 75 | 227 | 1.0 | 9.0 | 0.00 | 0.00 | 0.00 | 81 | 1015.5 |
| 20260830213919 | 76 | 172 | 0.0 | 0.0 | 0.00 | 0.00 | 0.00 | 81 | 1015.5 |
| 20260830212912 | 76 | 172 | 0.0 | 0.0 | 0.00 | 0.00 | 0.00 | 80 | 1015.3 |
| 20260830212349 | 76 | 172 | 0.0 | 1.0 | 0.00 | 0.00 | 0.00 | 79 | 1015.3 |
| 20260830210910 | 76 | 172 | 0.0 | 0.0 | 0.00 | 0.00 | 0.00 | 78 | 1015.3 |
| 20260830205912 | 76 | 172 | 0.0 | 7.0 | 0.00 | 0.00 | 0.00 | 78 | 1015.4 |
| 20260830204912 | 76 | 172 | 1.0 | 7.0 | 0.00 | 0.00 | 0.00 | 76 | 1015.4 |
| 20260830204356 | 76 | 194 | 1.0 | 3.0 | 0.00 | 0.00 | 0.00 | 76 | 1015.6 |
| 20260830202909 | 76 | 193 | 0.0 | 3.0 | 0.00 | 0.00 | 0.00 | 76 | 1015.6 |
| 20260830201910 | 76 | 218 | 0.0 | 0.0 | 0.00 | 0.00 | 0.00 | 76 | 1015.7 |
| 20260830201347 | 76 | 218 | 0.0 | 2.0 | 0.00 | 0.00 | 0.00 | 75 | 1015.7 |
| 20260830200352 | 76 | 217 | 1.0 | 4.0 | 0.00 | 0.00 | 0.00 | 74 | 1015.9 |
| 20260830194909 | 76 | 227 | 1.0 | 4.0 | 0.00 | 0.00 | 0.00 | 74 | 1016.0 |
| 20260830193910 | 76 | 217 | 0.0 | 5.0 | 0.00 | 0.00 | 0.00 | 74 | 1016.1 |
| 20260830192908 | 76 | 223 | 0.0 | 4.0 | 0.00 | 0.00 | 0.00 | 75 | 1016.4 |
| 20260830191910 | 77 | 224 | 0.0 | 1.0 | 0.00 | 0.00 | 0.00 | 74 | 1016.5 |
| 20260830190910 | 77 | 223 | 1.0 | 5.0 | 0.00 | 0.00 | 0.00 | 72 | 1016.7 |
| 20260830185905 | 77 | 193 | 1.0 | 5.0 | 0.00 | 0.00 | 0.00 | 70 | 1016.7 |
| 20260830184905 | 77 | 207 | 1.0 | 4.0 | 0.00 | 0.00 | 0.00 | 70 | 1016.9 |
| 20260830183902 | 77 | 220 | 1.0 | 4.0 | 0.00 | 0.00 | 0.00 | 70 | 1017.1 |